RYR3QL LIEE-LICJ

Flight info

Callsign RYR3QL
Flight time 0h 38m
Altitude 19000
Route CAR M871 NEVOT DCT ADAMI DCT KAPIL M871 PAL
Aircraft B738/M-SDE3FGILRWY/SB1

Departure

Time 2026-05-04 21:13
Airport Cagliari Elmas Airport (LIEE)

Arrival

Time 2026-05-04 21:51
Airport Falcone–Borsellino Airport (LICJ)
Time Latitude Longitude Altitude Speed Heading
2026-05-04 20:48 39.25235 9.05949 14 ft 0 kts 321°
2026-05-04 21:04 39.25227 9.05957 14 ft 4 kts 321°
2026-05-04 21:04 39.25210 9.05974 14 ft 3 kts 321°
2026-05-04 21:04 39.25196 9.05997 17 ft 4 kts 266°
2026-05-04 21:05 39.25204 9.06025 16 ft 4 kts 232°
2026-05-04 21:05 39.25215 9.06043 14 ft 0 kts 232°
2026-05-04 21:08 39.25202 9.06021 16 ft 10 kts 232°
2026-05-04 21:08 39.25149 9.05931 15 ft 9 kts 242°
2026-05-04 21:08 39.25153 9.05857 14 ft 8 kts 264°
2026-05-04 21:09 39.25130 9.05787 14 ft 9 kts 242°
2026-05-04 21:09 39.25143 9.05710 15 ft 11 kts 309°
2026-05-04 21:09 39.25219 9.05619 15 ft 20 kts 317°
2026-05-04 21:09 39.25331 9.05490 14 ft 22 kts 318°
2026-05-04 21:10 39.25442 9.05361 14 ft 21 kts 317°
2026-05-04 21:10 39.25549 9.05234 14 ft 21 kts 318°
2026-05-04 21:10 39.25654 9.05114 14 ft 20 kts 319°
2026-05-04 21:10 39.25756 9.04997 14 ft 19 kts 318°
2026-05-04 21:11 39.25854 9.04884 14 ft 19 kts 318°
2026-05-04 21:11 39.25948 9.04775 14 ft 18 kts 318°
2026-05-04 21:11 39.26028 9.04682 14 ft 13 kts 318°
2026-05-04 21:11 39.26094 9.04601 14 ft 13 kts 308°
2026-05-04 21:12 39.26123 9.04495 14 ft 12 kts 274°
2026-05-04 21:12 39.26090 9.04400 14 ft 12 kts 214°
2026-05-04 21:12 39.26007 9.04433 13 ft 24 kts 137°
2026-05-04 21:12 39.25703 9.04787 15 ft 93 kts 138°
2026-05-04 21:13 39.25071 9.05515 20 ft 148 kts 139°
2026-05-04 21:13 39.24277 9.06428 497 ft 156 kts 139°
2026-05-04 21:13 39.23450 9.07384 1097 ft 161 kts 139°
2026-05-04 21:13 39.22569 9.08403 1492 ft 183 kts 139°
2026-05-04 21:14 39.21552 9.09580 1750 ft 211 kts 138°
2026-05-04 21:14 39.20409 9.10905 2028 ft 229 kts 138°
2026-05-04 21:14 39.19208 9.12297 2537 ft 235 kts 139°
2026-05-04 21:14 39.17988 9.13711 3260 ft 237 kts 139°
2026-05-04 21:15 39.16911 9.15434 3613 ft 263 kts 114°
2026-05-04 21:15 39.16351 9.17731 4196 ft 274 kts 107°
2026-05-04 21:15 39.15853 9.20130 4926 ft 279 kts 107°
2026-05-04 21:15 39.15359 9.22552 5708 ft 281 kts 108°
2026-05-04 21:16 39.14862 9.24988 6549 ft 281 kts 108°
2026-05-04 21:16 39.14358 9.27440 7292 ft 286 kts 109°
2026-05-04 21:16 39.13839 9.29944 7964 ft 293 kts 109°
2026-05-04 21:16 39.13307 9.32499 8708 ft 298 kts 109°
2026-05-04 21:17 39.12763 9.35101 9476 ft 304 kts 109°
2026-05-04 21:17 39.12208 9.37752 10211 ft 310 kts 109°
2026-05-04 21:17 39.11634 9.40474 10555 ft 331 kts 109°
2026-05-04 21:17 39.11004 9.43454 10980 ft 347 kts 109°
2026-05-04 21:18 39.10376 9.46442 11646 ft 353 kts 108°
2026-05-04 21:18 39.09729 9.49518 12378 ft 359 kts 108°
2026-05-04 21:18 39.09063 9.52684 13150 ft 364 kts 108°
2026-05-04 21:18 39.08621 9.54777 13667 ft 368 kts 107°
2026-05-04 21:19 39.07944 9.57984 14404 ft 374 kts 107°
2026-05-04 21:19 39.07031 9.62288 15397 ft 379 kts 107°
2026-05-04 21:19 39.06333 9.65580 16146 ft 384 kts 107°
2026-05-04 21:19 39.05624 9.68912 16882 ft 389 kts 107°
2026-05-04 21:20 39.04905 9.72288 17626 ft 394 kts 107°
2026-05-04 21:20 39.04175 9.75704 18353 ft 399 kts 108°
2026-05-04 21:20 39.03653 9.78028 18775 ft 401 kts 110°
2026-05-04 21:20 39.02769 9.81444 19440 ft 404 kts 112°
2026-05-04 21:21 39.01816 9.84849 20134 ft 406 kts 112°
2026-05-04 21:21 39.00839 9.88261 20834 ft 408 kts 112°
2026-05-04 21:21 38.99868 9.91650 21480 ft 411 kts 112°
2026-05-04 21:21 38.98881 9.95114 22107 ft 415 kts 112°
2026-05-04 21:22 38.97890 9.98614 22731 ft 419 kts 112°
2026-05-04 21:22 38.96896 10.02148 23354 ft 422 kts 112°
2026-05-04 21:22 38.95896 10.05710 23922 ft 425 kts 112°
2026-05-04 21:22 38.94890 10.09298 24426 ft 429 kts 112°
2026-05-04 21:23 38.93876 10.12912 24914 ft 432 kts 112°
2026-05-04 21:23 38.92851 10.16561 25387 ft 436 kts 112°
2026-05-04 21:23 38.91818 10.20234 25874 ft 439 kts 112°
2026-05-04 21:23 38.90776 10.23934 26372 ft 441 kts 112°
2026-05-04 21:24 38.89731 10.27640 26974 ft 440 kts 112°
2026-05-04 21:24 38.88691 10.31326 27649 ft 438 kts 112°
2026-05-04 21:24 38.87653 10.34995 28287 ft 437 kts 112°
2026-05-04 21:24 38.86615 10.38662 28866 ft 437 kts 112°
2026-05-04 21:25 38.85574 10.42330 29450 ft 437 kts 112°
2026-05-04 21:25 38.84533 10.45991 30060 ft 436 kts 112°
2026-05-04 21:25 38.83495 10.49640 30575 ft 435 kts 113°
2026-05-04 21:25 38.82455 10.53290 31020 ft 436 kts 113°
2026-05-04 21:26 38.80360 10.60625 31084 ft 436 kts 112°
2026-05-04 21:26 38.78275 10.67910 31099 ft 436 kts 113°
2026-05-04 21:27 38.76180 10.75208 31099 ft 437 kts 113°
2026-05-04 21:27 38.74078 10.82512 31096 ft 437 kts 113°
2026-05-04 21:28 38.71970 10.89817 30839 ft 436 kts 113°
2026-05-04 21:28 38.70985 10.93486 30595 ft 435 kts 107°
2026-05-04 21:28 38.70413 10.97275 30350 ft 434 kts 96°
2026-05-04 21:29 38.70184 11.01068 30171 ft 432 kts 96°
2026-05-04 21:29 38.69918 11.04905 29906 ft 438 kts 96°
2026-05-04 21:29 38.69616 11.08896 29352 ft 460 kts 96°
2026-05-04 21:29 38.69301 11.12977 28822 ft 461 kts 96°
2026-05-04 21:30 38.68986 11.17101 28272 ft 457 kts 96°
2026-05-04 21:30 38.68681 11.21132 27745 ft 454 kts 96°
2026-05-04 21:30 38.68384 11.25089 27241 ft 452 kts 96°
2026-05-04 21:30 38.68085 11.29097 26741 ft 452 kts 96°
2026-05-04 21:31 38.67487 11.37097 25764 ft 451 kts 96°
2026-05-04 21:31 38.67186 11.41093 25286 ft 450 kts 96°
2026-05-04 21:31 38.66886 11.45073 24819 ft 449 kts 96°
2026-05-04 21:32 38.66584 11.49045 24359 ft 448 kts 96°
2026-05-04 21:32 38.66283 11.53002 23904 ft 445 kts 96°
2026-05-04 21:32 38.65982 11.56932 23407 ft 442 kts 96°
2026-05-04 21:32 38.65682 11.60826 22874 ft 438 kts 96°
2026-05-04 21:33 38.65383 11.64692 22351 ft 436 kts 96°
2026-05-04 21:33 38.65084 11.68536 21837 ft 432 kts 96°
2026-05-04 21:33 38.64787 11.72345 21329 ft 428 kts 96°
2026-05-04 21:33 38.64491 11.76117 20841 ft 425 kts 96°
2026-05-04 21:34 38.64197 11.79859 20365 ft 421 kts 95°
2026-05-04 21:34 38.63904 11.83567 19881 ft 417 kts 95°
2026-05-04 21:34 38.63612 11.87246 19403 ft 414 kts 95°
2026-05-04 21:34 38.63321 11.90898 18948 ft 411 kts 95°
2026-05-04 21:35 38.63032 11.94514 18650 ft 405 kts 95°
2026-05-04 21:35 38.62747 11.98068 18390 ft 403 kts 95°
2026-05-04 21:35 38.62458 12.01659 18011 ft 408 kts 95°
2026-05-04 21:35 38.62166 12.05277 17620 ft 409 kts 95°
2026-05-04 21:36 38.61873 12.08889 17226 ft 407 kts 95°
2026-05-04 21:36 38.61581 12.12470 16838 ft 404 kts 95°
2026-05-04 21:36 38.61289 12.16034 16458 ft 402 kts 95°
2026-05-04 21:36 38.60998 12.19582 16072 ft 400 kts 95°
2026-05-04 21:37 38.60707 12.23113 15696 ft 399 kts 96°
2026-05-04 21:37 38.60416 12.26630 15319 ft 397 kts 96°
2026-05-04 21:37 38.60125 12.30135 14943 ft 396 kts 96°
2026-05-04 21:37 38.59838 12.33576 14578 ft 394 kts 96°
2026-05-04 21:38 38.59547 12.37056 14191 ft 393 kts 96°
2026-05-04 21:38 38.59256 12.40524 13785 ft 392 kts 96°
2026-05-04 21:38 38.58965 12.43981 13379 ft 389 kts 95°
2026-05-04 21:38 38.58676 12.47400 12995 ft 384 kts 96°
2026-05-04 21:39 38.58391 12.50756 12624 ft 377 kts 96°
2026-05-04 21:39 38.58110 12.54059 12263 ft 371 kts 96°
2026-05-04 21:39 38.57836 12.57266 11918 ft 366 kts 96°
2026-05-04 21:39 38.57560 12.60487 11574 ft 363 kts 96°
2026-05-04 21:40 38.57286 12.63675 11235 ft 360 kts 96°
2026-05-04 21:40 38.57013 12.66843 10894 ft 357 kts 96°
2026-05-04 21:40 38.56741 12.69982 10553 ft 354 kts 96°
2026-05-04 21:40 38.56471 12.73099 10243 ft 351 kts 96°
2026-05-04 21:41 38.56204 12.76160 10074 ft 345 kts 96°
2026-05-04 21:41 38.55939 12.79206 9713 ft 345 kts 96°
2026-05-04 21:41 38.55672 12.82253 9375 ft 345 kts 96°
2026-05-04 21:41 38.55404 12.85307 9041 ft 346 kts 96°
2026-05-04 21:42 38.55136 12.88355 8705 ft 345 kts 96°
2026-05-04 21:42 38.54868 12.91394 8371 ft 344 kts 96°
2026-05-04 21:42 38.54600 12.94422 8043 ft 343 kts 96°
2026-05-04 21:42 38.54331 12.97443 7719 ft 340 kts 96°
2026-05-04 21:43 38.54068 13.00385 7596 ft 327 kts 96°
2026-05-04 21:43 38.53583 13.03171 7328 ft 320 kts 112°
2026-05-04 21:43 38.52651 13.05725 7030 ft 313 kts 116°
2026-05-04 21:43 38.51748 13.08182 6756 ft 299 kts 115°
2026-05-04 21:44 38.50828 13.10509 6379 ft 289 kts 127°
2026-05-04 21:44 38.49430 13.12283 6014 ft 279 kts 142°
2026-05-04 21:44 38.47913 13.13784 5638 ft 273 kts 144°
2026-05-04 21:44 38.46434 13.15213 5275 ft 267 kts 144°
2026-05-04 21:45 38.44977 13.16619 5014 ft 258 kts 144°
2026-05-04 21:45 38.43535 13.17906 4707 ft 250 kts 152°
2026-05-04 21:45 38.42034 13.18939 4452 ft 241 kts 154°
2026-05-04 21:45 38.40568 13.19900 4239 ft 232 kts 154°
2026-05-04 21:46 38.39123 13.20696 4028 ft 220 kts 171°
2026-05-04 21:46 38.37697 13.20427 3864 ft 202 kts 205°
2026-05-04 21:46 38.36449 13.19688 3805 ft 193 kts 202°
2026-05-04 21:46 38.35201 13.19016 3610 ft 197 kts 203°
2026-05-04 21:47 38.33934 13.18316 3364 ft 199 kts 203°
2026-05-04 21:47 38.32674 13.17608 3100 ft 197 kts 203°
2026-05-04 21:47 38.31430 13.16907 2844 ft 194 kts 202°
2026-05-04 21:47 38.30200 13.16213 2584 ft 192 kts 202°
2026-05-04 21:48 38.28999 13.15537 2331 ft 186 kts 203°
2026-05-04 21:48 38.27820 13.14873 2106 ft 184 kts 202°
2026-05-04 21:48 38.26657 13.14217 1854 ft 182 kts 202°
2026-05-04 21:48 38.25537 13.13586 1625 ft 168 kts 202°
2026-05-04 21:49 38.24521 13.13013 1392 ft 151 kts 202°
2026-05-04 21:49 38.23623 13.12507 1191 ft 135 kts 202°
2026-05-04 21:49 38.22768 13.12028 1038 ft 135 kts 202°
2026-05-04 21:49 38.21914 13.11550 844 ft 134 kts 204°
2026-05-04 21:50 38.21069 13.11072 659 ft 132 kts 204°
2026-05-04 21:50 38.20236 13.10599 503 ft 130 kts 205°
2026-05-04 21:50 38.19406 13.10135 308 ft 130 kts 204°
2026-05-04 21:50 38.18583 13.09667 135 ft 128 kts 205°
2026-05-04 21:51 38.17807 13.09228 52 ft 109 kts 204°
2026-05-04 21:51 38.17254 13.08917 51 ft 65 kts 204°
2026-05-04 21:51 38.16934 13.08737 49 ft 45 kts 204°
2026-05-04 21:51 38.16739 13.08629 50 ft 22 kts 204°
2026-05-04 21:52 38.16654 13.08553 52 ft 12 kts 255°
2026-05-04 21:52 38.16681 13.08462 52 ft 11 kts 310°
2026-05-04 21:52 38.16749 13.08440 52 ft 10 kts 356°
2026-05-04 21:52 38.16819 13.08452 52 ft 10 kts 16°
2026-05-04 21:53 38.16898 13.08485 52 ft 14 kts 17°
2026-05-04 21:53 38.17014 13.08531 52 ft 22 kts 18°
2026-05-04 21:53 38.17171 13.08595 52 ft 24 kts 18°
2026-05-04 21:53 38.17326 13.08658 50 ft 23 kts 18°
2026-05-04 21:54 38.17475 13.08721 52 ft 22 kts 19°
2026-05-04 21:54 38.17595 13.08817 52 ft 19 kts 37°
2026-05-04 21:54 38.17700 13.08916 52 ft 18 kts 37°
2026-05-04 21:54 38.17768 13.09039 52 ft 17 kts 66°
2026-05-04 21:55 38.17813 13.09176 52 ft 16 kts 67°
2026-05-04 21:55 38.17859 13.09310 52 ft 17 kts 66°
2026-05-04 21:55 38.17913 13.09469 52 ft 22 kts 67°
2026-05-04 21:55 38.17979 13.09665 49 ft 25 kts 67°
2026-05-04 21:56 38.18044 13.09862 52 ft 23 kts 67°
2026-05-04 21:56 38.18107 13.10046 52 ft 22 kts 66°
2026-05-04 21:56 38.18166 13.10225 49 ft 22 kts 67°
2026-05-04 21:56 38.18204 13.10335 52 ft 11 kts 63°
2026-05-04 21:57 38.18260 13.10366 50 ft 10 kts 352°
2026-05-04 21:57 38.18310 13.10419 52 ft 11 kts 62°
2026-05-04 21:57 38.18366 13.10488 52 ft 13 kts 24°
2026-05-04 21:57 38.18441 13.10539 50 ft 12 kts 50°
2026-05-04 21:58 38.18476 13.10630 52 ft 11 kts 67°
2026-05-04 21:58 38.18507 13.10691 51 ft 6 kts 13°
2026-05-04 21:58 38.18549 13.10676 52 ft 6 kts 336°
2026-05-04 21:58 38.18561 13.10669 51 ft 0 kts 337°
2026-05-04 21:59 38.18567 13.10667 52 ft 0 kts 337°